• în România
  • Lista ţărilor
  • Pe 7 zile
  • Temperatura apei
  • Hartă satelitară
  • Meteo pe hartă
  • Widget-uri
  • user-avatar
    Intrare

    Meteo pe oră la Kipungo

    Astăzi, 22 Septembrie, Sâmbătă

    Timp Temperatura Precipitaţii Vânt Presiune Umiditate
    00:00 +23°C° 0 mm 1 m/s 652 mmHg 42%
    01:00 +21°C° 0 mm 1 m/s 652 mmHg 49%
    02:00 +21°C° 0 mm 1 m/s 652 mmHg 52%
    03:00 +20°C° 0 mm 1 m/s 652 mmHg 55%
    04:00 +20°C° 0 mm 1 m/s 651 mmHg 58%
    05:00 +21°C° 0 mm 1 m/s 652 mmHg 54%
    06:00 +21°C° 0 mm 1 m/s 652 mmHg 50%
    07:00 +22°C° 0 mm 1 m/s 653 mmHg 47%
    08:00 +26°C° 0 mm 2 m/s 654 mmHg 35%
    09:00 +30°C° 0 mm 3 m/s 655 mmHg 24%
    10:00 +35°C° 0 mm 4 m/s 656 mmHg 12%
    11:00 +36°C° 0 mm 3 m/s 655 mmHg 10%
    12:00 +38°C° 0 mm 3 m/s 655 mmHg 9%
    13:00 +39°C° 0 mm 3 m/s 654 mmHg 7%
    14:00 +39°C° 0 mm 2 m/s 654 mmHg 7%
    15:00 +39°C° 0 mm 2 m/s 653 mmHg 6%
    16:00 +39°C° 0 mm 1 m/s 653 mmHg 6%
    17:00 +36°C° 0 mm 2 m/s 653 mmHg 9%
    18:00 +32°C° 0 mm 2 m/s 653 mmHg 13%
    19:00 +29°C° 0 mm 2 m/s 653 mmHg 16%
    20:00 +28°C° 0 mm 2 m/s 653 mmHg 25%
    21:00 +26°C° 0 mm 2 m/s 653 mmHg 35%
    22:00 +25°C° 0 mm 3 m/s 653 mmHg 44%
    23:00 +24°C° 0 mm 2 m/s 653 mmHg 48%

    Mâine, 23 Septembrie, Duminică

    Timp Temperatura Precipitaţii Vânt Presiune Umiditate
    00:00 +23°C° 0 mm 2 m/s 653 mmHg 52%
    01:00 +21°C° 0 mm 2 m/s 652 mmHg 56%
    02:00 +20°C° 0 mm 2 m/s 652 mmHg 57%
    03:00 +20°C° 0 mm 2 m/s 652 mmHg 57%
    04:00 +20°C° 0 mm 1 m/s 652 mmHg 58%
    05:00 +20°C° 0 mm 2 m/s 652 mmHg 51%
    06:00 +21°C° 0 mm 2 m/s 653 mmHg 45%
    07:00 +23°C° 0 mm 2 m/s 653 mmHg 39%
    08:00 +26°C° 0 mm 2 m/s 654 mmHg 30%
    09:00 +30°C° 0 mm 2 m/s 655 mmHg 21%
    10:00 +35°C° 0 mm 2 m/s 656 mmHg 13%
    11:00 +37°C° 0 mm 2 m/s 655 mmHg 12%
    12:00 +38°C° 0 mm 2 m/s 655 mmHg 11%
    13:00 +40°C° 0 mm 2 m/s 654 mmHg 10%
    14:00 +39°C° 0 mm 2 m/s 654 mmHg 10%
    15:00 +39°C° 0 mm 2 m/s 653 mmHg 10%
    16:00 +38°C° 0 mm 2 m/s 653 mmHg 10%
    17:00 +36°C° 0 mm 2 m/s 653 mmHg 15%
    18:00 +32°C° 0 mm 2 m/s 653 mmHg 20%
    19:00 +29°C° 0 mm 3 m/s 653 mmHg 25%
    20:00 +28°C° 0 mm 3 m/s 653 mmHg 33%
    21:00 +26°C° 0 mm 3 m/s 653 mmHg 41%
    22:00 +25°C° 0 mm 3 m/s 654 mmHg 49%
    23:00 +24°C° 0 mm 2 m/s 653 mmHg 53%

    Poimâine, 24 Septembrie, Luni

    Timp Temperatura Precipitaţii Vânt Presiune Umiditate
    00:00 +23°C° 0 mm 2 m/s 653 mmHg 57%
    01:00 +21°C° 0 mm 2 m/s 652 mmHg 61%
    02:00 +21°C° 0 mm 2 m/s 652 mmHg 62%
    03:00 +20°C° 0 mm 2 m/s 652 mmHg 63%
    04:00 +20°C° 0 mm 2 m/s 652 mmHg 64%
    05:00 +22°C° 0 mm 1 m/s 652 mmHg 58%
    06:00 +23°C° 0 mm 1 m/s 653 mmHg 53%
    07:00 +23°C° 0 mm 1 m/s 653 mmHg 48%
    08:00 +26°C° 0 mm 1 m/s 654 mmHg 38%
    09:00 +29°C° 0 mm 1 m/s 655 mmHg 28%
    10:00 +32°C° 0 mm 1 m/s 655 mmHg 18%
    11:00 +36°C° 0 mm 1 m/s 655 mmHg 15%
    12:00 +40°C° 0 mm 1 m/s 655 mmHg 13%
    13:00 +43°C° 0 mm 1 m/s 655 mmHg 10%
    14:00 +41°C° 0 mm 1 m/s 654 mmHg 11%
    15:00 +39°C° 0 mm 1 m/s 653 mmHg 11%
    16:00 +37°C° 0 mm 1 m/s 653 mmHg 12%
    17:00 +35°C° 0 mm 2 m/s 653 mmHg 16%
    18:00 +33°C° 0 mm 3 m/s 653 mmHg 21%
    19:00 +30°C° 0 mm 4 m/s 653 mmHg 25%
    20:00 +28°C° 0 mm 3 m/s 653 mmHg 32%
    21:00 +27°C° 0 mm 3 m/s 653 mmHg 39%
    22:00 +25°C° 0 mm 2 m/s 653 mmHg 45%
    23:00 +24°C° 0 mm 2 m/s 653 mmHg 50%

    25 Septembrie, Marţi

    Timp Temperatura Precipitaţii Vânt Presiune Umiditate
    00:00 +23°C° 0 mm 2 m/s 653 mmHg 54%
    01:00 +23°C° 0 mm 2 m/s 652 mmHg 58%
    02:00 +21°C° 0 mm 2 m/s 652 mmHg 59%
    03:00 +21°C° 0 mm 2 m/s 652 mmHg 60%
    04:00 +22°C° 0 mm 1 m/s 652 mmHg 61%
    05:00 +22°C° 0 mm 1 m/s 653 mmHg 59%
    06:00 +22°C° 0 mm 1 m/s 653 mmHg 58%
    07:00 +22°C° 0 mm 1 m/s 654 mmHg 57%
    08:00 +26°C° 0 mm 1 m/s 655 mmHg 43%
    09:00 +30°C° 0 mm 1 m/s 655 mmHg 30%
    10:00 +35°C° 0 mm 2 m/s 656 mmHg 17%
    11:00 +36°C° 0 mm 2 m/s 656 mmHg 15%
    12:00 +38°C° 0 mm 2 m/s 655 mmHg 13%
    13:00 +39°C° 0 mm 2 m/s 654 mmHg 11%
    14:00 +39°C° 0 mm 2 m/s 654 mmHg 11%
    15:00 +38°C° 0 mm 2 m/s 653 mmHg 12%
    16:00 +37°C° 0 mm 2 m/s 653 mmHg 12%
    17:00 +35°C° 0 mm 3 m/s 653 mmHg 17%
    18:00 +31°C° 0 mm 3 m/s 653 mmHg 23%
    19:00 +29°C° 0 mm 4 m/s 654 mmHg 28%
    20:00 +27°C° 0 mm 3 m/s 654 mmHg 36%
    21:00 +26°C° 0 mm 3 m/s 654 mmHg 43%
    22:00 +24°C° 0 mm 2 m/s 654 mmHg 51%
    23:00 +23°C° 0 mm 2 m/s 653 mmHg 55%

    26 Septembrie, Miercuri

    Timp Temperatura Precipitaţii Vânt Presiune Umiditate
    00:00 +21°C° 0 mm 2 m/s 653 mmHg 60%
    01:00 +21°C° 0 mm 1 m/s 652 mmHg 64%
    02:00 +20°C° 0 mm 1 m/s 652 mmHg 66%
    03:00 +20°C° 0 mm 1 m/s 652 mmHg 68%
    04:00 +19°C° 0 mm 1 m/s 652 mmHg 70%
    05:00 +20°C° 0 mm 1 m/s 653 mmHg 64%
    06:00 +21°C° 0 mm 1 m/s 653 mmHg 57%
    07:00 +22°C° 0 mm 1 m/s 654 mmHg 50%
    08:00 +26°C° 0 mm 1 m/s 655 mmHg 38%
    09:00 +29°C° 0 mm 2 m/s 656 mmHg 26%
    10:00 +34°C° 0 mm 3 m/s 656 mmHg 13%
    11:00 +35°C° 0 mm 3 m/s 656 mmHg 12%
    12:00 +37°C° 0 mm 2 m/s 655 mmHg 11%
    13:00 +39°C° 0 mm 2 m/s 654 mmHg 10%
    14:00 +39°C° 0 mm 2 m/s 654 mmHg 10%
    15:00 +39°C° 0 mm 2 m/s 653 mmHg 10%
    16:00 +39°C° 0 mm 1 m/s 653 mmHg 10%
    17:00 +36°C° 0 mm 2 m/s 653 mmHg 13%
    18:00 +34°C° 0 mm 2 m/s 653 mmHg 16%
    19:00 +30°C° 0 mm 2 m/s 653 mmHg 19%
    20:00 +28°C° 0 mm 2 m/s 653 mmHg 27%
    21:00 +26°C° 0 mm 3 m/s 653 mmHg 36%
    22:00 +25°C° 0 mm 3 m/s 653 mmHg 44%
    23:00 +23°C° 0 mm 2 m/s 653 mmHg 48%

    27 Septembrie, Joi

    Timp Temperatura Precipitaţii Vânt Presiune Umiditate
    00:00 +21°C° 0 mm 2 m/s 652 mmHg 53%
    01:00 +21°C° 0 mm 1 m/s 652 mmHg 57%
    02:00 +20°C° 0 mm 1 m/s 652 mmHg 58%
    03:00 +20°C° 0 mm 1 m/s 652 mmHg 60%
    04:00 +19°C° 0 mm 1 m/s 652 mmHg 61%
    05:00 +20°C° 0 mm 1 m/s 652 mmHg 55%
    06:00 +22°C° 0 mm 1 m/s 653 mmHg 49%
    07:00 +23°C° 0 mm 1 m/s 654 mmHg 42%
    08:00 +26°C° 0 mm 2 m/s 655 mmHg 32%
    09:00 +30°C° 0 mm 3 m/s 655 mmHg 22%
    10:00 +34°C° 0 mm 4 m/s 656 mmHg 11%
    11:00 +36°C° 0 mm 3 m/s 655 mmHg 11%
    12:00 +38°C° 0 mm 3 m/s 655 mmHg 11%
    13:00 +40°C° 0 mm 2 m/s 654 mmHg 10%
    14:00 +39°C° 0 mm 2 m/s 653 mmHg 11%
    15:00 +39°C° 0 mm 2 m/s 653 mmHg 11%
    16:00 +39°C° 0 mm 1 m/s 652 mmHg 11%
    17:00 +36°C° 0 mm 2 m/s 653 mmHg 14%
    18:00 +34°C° 0 mm 2 m/s 653 mmHg 16%
    19:00 +31°C° 0 mm 2 m/s 653 mmHg 18%
    20:00 +29°C° 0 mm 2 m/s 653 mmHg 24%
    21:00 +27°C° 0 mm 2 m/s 653 mmHg 29%
    22:00 +26°C° 0 mm 3 m/s 653 mmHg 35%
    23:00 +25°C° 0 mm 2 m/s 653 mmHg 38%
    Arată mai mult